星链-11259 (STARLINK-11259)

导读

STARLINK-11259是美国太空探索技术公司(SpaceX)于2024年8月28日发射的星链(Starlink)低轨互联网卫星,隶属于星链全球卫星互联网星座。该卫星部署在近地轨道,配备相控阵天线等技术,为全球尤其是偏远地区提供低延迟高速宽带服务,也可支持航空、海洋及军事通信等场景,是星链星座组网扩容的重要组成部分。

基本信息
目录编号:
60721
目录名称:
STARLINK-11259
国际标识:
2024-152B
轨道中心:
EARTH
卫星名称:
星链-11259 (STARLINK-11259)
卫星全名:
星链-11259 (STARLINK-11259)
卫星状态:
在轨 (已飞行655 天)
发射日期:
2024-08-28 UTC
国别 :
美国 (US)
星等 :
--
轨道信息
数据来源 国际轨道数据
星历时间: 2026-06-14T04:15:07+0800
15小时前
查看轨道信息
半长轴: 6737.851km
偏心率: 0.0000816
轨道倾角: 53.159°
近地点辐角 106.198°
升交点赤经 2.512°
平近点角 253.913°
近地点: 359.164km
远地点: 360.264km
周期: 91.736分钟
每日圈数: 15.697146
详细信息
卫星平台:
Starlink v2.0 mini
运营商:
太空探索技术公司
运营商所在国:
美国
制造商(研发单位):
太空探索技术公司
制造商所在国:
美国
使用方式:
暂无
卫星简介
星链(Starlink)计划是由太空探索技术公司(SpaceX)提出的一个巨型低轨卫星互联网星座项目,计划在2019年至2024年间在太空搭建由约1.2万颗卫星组成的“星链”网络,其中1584颗将部署在地球上空550千米处的近地轨道,并从2020年开始工作。该卫星仍在工作。
2D轨道图
3D轨道图
轨道高度分析图
轨道倾角分析图
轨道综合分析图
查看轨道综合分析图